#timestamp,LO_Frequency,Hit 
1499605215.7,286045616.6,N
1499605235.6,286045616.3,N
1499605255.4,286045616.6,N
1499605275.2,286045616.3,N
1499605295.1,286045617.0,N
1499605296.0,286045617.0,N
1499605315.8,286045617.0,N
1499605335.7,286045614.2,N
1499605355.5,286045614.9,N
1499605375.3,286045614.5,N
1499605395.2,286045617.2,N
1499605415.9,286045616.8,N
1499605435.7,286045616.9,N
1499605455.6,286045615.9,N
1499605475.4,286045617.2,N
1499605495.2,286045614.9,N
1499605515.1,286045615.6,N
1499605516.0,286045615.6,N
1499605535.8,286045612.7,N
1499605555.7,286045612.7,N
1499605575.5,286045613.2,N
1499605595.3,286045613.0,N
1499605615.2,286045614.9,N
1499605635.0,286045613.1,N
1499605635.9,286045613.1,N
1499605655.8,286045613.0,N
1499605675.6,286045615.1,N
1499605695.4,286045614.9,N
1499605715.3,286045614.8,N
1499605735.1,286045615.4,N
1499605755.8,286045615.5,N
1499605775.7,286045615.6,N
1499605795.5,286045615.5,N
1499605815.4,286045615.4,N
1499605835.2,286045615.4,N
1499605855.0,286045613.1,N
1499605855.9,286045613.1,N
1499605875.8,286045614.9,N
1499605895.6,286045615.1,N
1499605915.4,286045612.9,N
1499605935.3,286045615.5,N
1499605955.1,286045614.4,N
1499605975.9,286045614.1,N
1499605995.7,286045616.9,N
1499606015.5,286045616.4,N
1499606035.4,286045617.1,N
1499606055.2,286045616.6,N
1499606075.0,286045616.9,N
1499606075.9,286045616.9,N
1499606095.8,286045616.9,N
1499606115.6,286045616.9,N
1499606135.5,286045616.4,N
1499606155.3,286045615.9,N
1499606175.1,286045616.2,N
1499606195.9,286045618.5,N
1499606215.7,286045617.8,N
1499606235.5,286045618.1,N
1499606255.4,286045617.3,N
1499606275.2,286045617.6,N
1499606295.1,286045617.6,N
1499606296.0,286045617.6,N
1499606315.8,286045620.2,N
1499606335.6,286045617.7,N
1499606355.5,286045617.4,N
1499606375.3,286045617.4,N
1499606395.1,286045617.5,N
1499606415.9,286045618.0,N
1499606435.7,286045617.6,N
1499606455.6,286045617.8,N
1499606475.4,286045617.7,N
1499606495.2,286045617.7,N
1499606515.1,286045620.1,N
1499606516.0,286045620.1,N
1499606535.8,286045619.9,N
1499606555.7,286045617.5,N
1499606575.5,286045617.4,N
1499606595.3,286045617.6,N
1499606615.2,286045618.1,N
1499606635.0,286045620.0,N
1499606635.9,286045620.0,N
1499606655.8,286045619.8,N
1499606675.6,286045619.9,N
1499606695.4,286045617.5,N
1499606715.3,286045620.4,N
1499606735.1,286045619.2,N
1499606755.8,286045619.8,N
1499606775.7,286045620.2,N
1499606795.5,286045619.2,N
1499606815.4,286045619.4,N
1499606835.2,286045618.9,N
1499606855.0,286045619.1,N
1499606855.9,286045619.1,N
1499606875.8,286045619.1,N
1499606895.6,286045619.4,N
1499606915.4,286045621.7,N
1499606935.3,286045618.9,N
1499606955.1,286045618.9,N
1499606975.9,286045621.8,N
1499606995.7,286045621.3,N
1499607015.5,286045623.5,N
1499607035.4,286045623.2,N
1499607055.2,286045621.0,N
1499607075.1,286045621.7,N
1499607076.0,286045621.7,N
1499607095.8,286045621.4,N
1499607115.6,286045625.1,N
1499607135.5,286045622.5,N
1499607155.3,286045623.5,N
1499607175.1,286045620.5,N
1499607195.9,286045623.6,N
1499607245.7,286045621.3,Y
1499607255.6,286046210.2,N
1499607275.5,286047000.5,N
1499607295.3,286047000.3,N
1499607315.2,286047001.5,N
1499607335.9,286047000.0,N
1499607355.7,286047000.0,N
1499607375.6,286046999.9,N
1499607395.4,286046999.7,N
1499607415.2,286047001.9,N
1499607435.1,286047000.0,N
1499607436.0,286047000.0,N
1499607455.8,286047002.2,N
1499607475.7,286047000.3,N
1499607495.5,286047000.8,N
1499607515.3,286047001.1,N
1499607535.2,286047002.7,N
1499607555.0,286047001.4,N
1499607555.9,286047001.4,N
1499607575.8,286047002.0,N
1499607595.6,286047002.0,N
1499607615.4,286047000.2,N
1499607635.3,286047002.5,N
1499607655.1,286047002.0,N
1499607675.9,286046999.7,N
1499607695.7,286047002.3,N
1499607715.5,286046999.9,N
1499607735.4,286047000.0,N
1499607755.2,286046999.8,N
1499607775.0,286047002.7,N
1499607775.9,286047002.7,N
1499607795.8,286046999.8,N
1499607815.6,286047000.1,N
1499607835.5,286047002.2,N
1499607855.3,286047001.5,N
1499607875.1,286047002.4,N
1499607895.9,286047000.1,N
1499607915.7,286047000.2,N
1499607935.5,286047002.8,N
1499607955.4,286047002.5,N
1499607975.2,286047002.6,N
1499607995.1,286047001.7,N
1499607996.0,286047001.7,N
1499608015.8,286047001.5,N
1499608035.6,286047001.5,N
1499608055.5,286047001.7,N
1499608075.3,286047004.0,N
1499608095.1,286047000.1,N
1499608115.9,286047000.9,N
1499608135.7,286047000.3,N
1499608155.6,286047000.4,N
1499608175.4,286047000.5,N
1499608195.2,286047000.6,N
1499608215.1,286047001.5,N
1499608216.0,286047001.5,N
1499608235.8,286047003.6,N
1499608255.6,286047003.2,N
1499608275.5,286047004.1,N
1499608295.3,286047003.7,N
1499608315.2,286047005.4,N
1499608335.9,286047007.2,N
1499608355.7,286047003.3,N
1499608375.6,286047004.3,N
1499608395.4,286047004.3,N
1499608415.3,286047001.6,N
1499608435.1,286047002.0,N
1499608436.0,286047002.0,N
1499608455.8,286047004.1,N
1499608475.7,286047004.2,N
1499608495.5,286047001.4,N
1499608515.3,286047003.9,N
1499608535.2,286047001.8,N
1499608555.0,286047002.1,N
1499608555.9,286047002.1,N
1499608575.8,286047001.9,N
1499608595.6,286047001.4,N
1499608615.4,286047001.4,N
1499608635.3,286047001.6,N
1499608655.1,286047002.2,N
1499608675.8,286047004.4,N
1499608695.7,286047003.4,N
1499608715.5,286047005.2,N
1499608735.4,286047003.2,N
1499608755.2,286047004.2,N
1499608775.0,286047003.6,N
1499608775.9,286047003.6,N
1499608795.8,286047004.1,N
